• In Hungary
  • List of Countries
  • For 7 days
  • Water Temperature
  • Satellite Maps
  • Weather Map
  • News
  • Weather Widgets
  • user-avatar
    Login

    Hourly Weather Gluhovskaya

    Today, 19 September, Wednesday

    Time Temperature Precipitation Wind Pressure Humidity
    00:00 +13°C° 0.5 mm 1 mps 719 mmHg 83%
    01:00 +13°C° 0.5 mm 2 mps 719 mmHg 85%
    02:00 +12°C° 0.6 mm 3 mps 718 mmHg 88%
    03:00 +11°C° 0.6 mm 3 mps 718 mmHg 90%
    04:00 +10°C° 0 mm 3 mps 718 mmHg 93%
    05:00 +10°C° 0.6 mm 4 mps 718 mmHg 92%
    06:00 +10°C° 0.6 mm 4 mps 718 mmHg 91%
    07:00 +8°C° 0.6 mm 5 mps 718 mmHg 89%
    08:00 +8°C° 0.3 mm 5 mps 718 mmHg 87%
    09:00 +9°C° 0.3 mm 5 mps 718 mmHg 85%
    10:00 +9°C° 0.3 mm 5 mps 718 mmHg 82%
    11:00 +9°C° 0.1 mm 6 mps 718 mmHg 82%
    12:00 +9°C° 0.1 mm 6 mps 719 mmHg 82%
    13:00 +9°C° 0.1 mm 6 mps 719 mmHg 81%
    14:00 +9°C° 0.2 mm 6 mps 719 mmHg 80%
    15:00 +9°C° 0.2 mm 5 mps 720 mmHg 78%
    16:00 +10°C° 0.2 mm 5 mps 720 mmHg 77%
    17:00 +9°C° 0.1 mm 5 mps 720 mmHg 80%
    18:00 +8°C° 0.1 mm 4 mps 720 mmHg 84%
    19:00 +7°C° 0.1 mm 4 mps 720 mmHg 88%
    20:00 +7°C° 0.1 mm 4 mps 720 mmHg 90%
    21:00 +7°C° 0.1 mm 4 mps 721 mmHg 91%
    22:00 +7°C° 0.1 mm 4 mps 721 mmHg 92%
    23:00 +7°C° 0 mm 4 mps 721 mmHg 92%

    Tomorrow, 20 September, Thursday

    Time Temperature Precipitation Wind Pressure Humidity
    00:00 +7°C° 0 mm 5 mps 721 mmHg 91%
    01:00 +7°C° 0 mm 5 mps 721 mmHg 90%
    02:00 +7°C° 0 mm 5 mps 721 mmHg 89%
    03:00 +7°C° 0 mm 5 mps 722 mmHg 89%
    04:00 +6°C° 0 mm 5 mps 722 mmHg 89%
    05:00 +6°C° 0 mm 5 mps 722 mmHg 89%
    06:00 +6°C° 0 mm 5 mps 722 mmHg 89%
    07:00 +5°C° 0 mm 5 mps 722 mmHg 89%
    08:00 +6°C° 0 mm 5 mps 723 mmHg 85%
    09:00 +7°C° 0 mm 5 mps 723 mmHg 81%
    10:00 +7°C° 0 mm 6 mps 723 mmHg 77%
    11:00 +8°C° 0 mm 6 mps 723 mmHg 71%
    12:00 +10°C° 0 mm 6 mps 724 mmHg 65%
    13:00 +11°C° 0 mm 6 mps 724 mmHg 59%
    14:00 +11°C° 0 mm 6 mps 724 mmHg 58%
    15:00 +12°C° 0 mm 5 mps 724 mmHg 57%
    16:00 +12°C° 0 mm 5 mps 724 mmHg 57%
    17:00 +10°C° 0 mm 5 mps 724 mmHg 62%
    18:00 +8°C° 0 mm 4 mps 725 mmHg 68%
    19:00 +8°C° 0 mm 3 mps 725 mmHg 74%
    20:00 +8°C° 0 mm 3 mps 725 mmHg 77%
    21:00 +7°C° 0 mm 3 mps 725 mmHg 79%
    22:00 +5°C° 0 mm 3 mps 725 mmHg 82%
    23:00 +5°C° 0 mm 3 mps 725 mmHg 83%

    Day after tomorrow, 21 September, Friday

    Time Temperature Precipitation Wind Pressure Humidity
    00:00 +5°C° 0 mm 3 mps 725 mmHg 85%
    01:00 +4°C° 0 mm 3 mps 725 mmHg 86%
    02:00 +4°C° 0 mm 3 mps 725 mmHg 87%
    03:00 +4°C° 0 mm 3 mps 726 mmHg 88%
    04:00 +3°C° 0 mm 3 mps 726 mmHg 89%
    05:00 +3°C° 0 mm 3 mps 726 mmHg 89%
    06:00 +3°C° 0 mm 3 mps 726 mmHg 89%
    07:00 +3°C° 0 mm 3 mps 727 mmHg 89%
    08:00 +5°C° 0 mm 4 mps 727 mmHg 81%
    09:00 +7°C° 0 mm 4 mps 728 mmHg 73%
    10:00 +9°C° 0 mm 5 mps 728 mmHg 66%
    11:00 +10°C° 0 mm 5 mps 728 mmHg 62%
    12:00 +12°C° 0 mm 5 mps 728 mmHg 59%
    13:00 +13°C° 0 mm 5 mps 729 mmHg 55%
    14:00 +13°C° 0 mm 5 mps 729 mmHg 55%
    15:00 +13°C° 0 mm 5 mps 729 mmHg 55%
    16:00 +13°C° 0 mm 5 mps 729 mmHg 55%
    17:00 +12°C° 0 mm 4 mps 730 mmHg 62%
    18:00 +10°C° 0 mm 3 mps 730 mmHg 68%
    19:00 +9°C° 0 mm 3 mps 730 mmHg 74%
    20:00 +8°C° 0 mm 2 mps 730 mmHg 76%
    21:00 +8°C° 0 mm 2 mps 731 mmHg 79%
    22:00 +7°C° 0 mm 2 mps 731 mmHg 81%
    23:00 +7°C° 0 mm 2 mps 731 mmHg 83%

    22 September, Saturday

    Time Temperature Precipitation Wind Pressure Humidity
    00:00 +7°C° 0 mm 2 mps 731 mmHg 85%
    01:00 +6°C° 0 mm 2 mps 731 mmHg 87%
    02:00 +6°C° 0 mm 2 mps 732 mmHg 88%
    03:00 +6°C° 0 mm 2 mps 732 mmHg 90%
    04:00 +6°C° 0 mm 2 mps 732 mmHg 91%
    05:00 +6°C° 0 mm 2 mps 733 mmHg 92%
    06:00 +7°C° 0 mm 2 mps 733 mmHg 93%
    07:00 +7°C° 0 mm 2 mps 733 mmHg 94%
    08:00 +9°C° 0 mm 2 mps 734 mmHg 89%
    09:00 +12°C° 0 mm 2 mps 734 mmHg 84%
    10:00 +14°C° 0 mm 2 mps 734 mmHg 79%
    11:00 +15°C° 0 mm 2 mps 734 mmHg 75%
    12:00 +16°C° 0 mm 3 mps 734 mmHg 70%
    13:00 +18°C° 0 mm 3 mps 734 mmHg 66%
    14:00 +17°C° 0 mm 3 mps 734 mmHg 69%
    15:00 +17°C° 0 mm 3 mps 734 mmHg 72%
    16:00 +17°C° 0 mm 3 mps 734 mmHg 74%
    17:00 +16°C° 0 mm 3 mps 734 mmHg 79%
    18:00 +15°C° 0 mm 2 mps 734 mmHg 84%
    19:00 +14°C° 0 mm 2 mps 734 mmHg 89%
    20:00 +14°C° 0 mm 2 mps 734 mmHg 90%
    21:00 +13°C° 0 mm 2 mps 734 mmHg 91%
    22:00 +13°C° 0 mm 2 mps 734 mmHg 92%
    23:00 +12°C° 0 mm 2 mps 734 mmHg 92%

    23 September, Sunday

    Time Temperature Precipitation Wind Pressure Humidity
    00:00 +12°C° 0 mm 2 mps 734 mmHg 92%
    01:00 +12°C° 0 mm 2 mps 734 mmHg 93%
    02:00 +12°C° 0 mm 2 mps 734 mmHg 93%
    03:00 +12°C° 0 mm 2 mps 734 mmHg 93%
    04:00 +12°C° 0 mm 2 mps 734 mmHg 94%
    05:00 +10°C° 0 mm 2 mps 734 mmHg 94%
    06:00 +10°C° 0 mm 2 mps 734 mmHg 94%
    07:00 +10°C° 0 mm 2 mps 734 mmHg 94%
    08:00 +13°C° 0 mm 2 mps 734 mmHg 88%
    09:00 +14°C° 0 mm 3 mps 734 mmHg 81%
    10:00 +17°C° 0 mm 3 mps 734 mmHg 75%
    11:00 +18°C° 0 mm 3 mps 734 mmHg 71%
    12:00 +19°C° 0 mm 4 mps 734 mmHg 67%
    13:00 +20°C° 0 mm 4 mps 734 mmHg 63%
    14:00 +20°C° 0 mm 4 mps 734 mmHg 63%
    15:00 +20°C° 0 mm 4 mps 734 mmHg 63%
    16:00 +20°C° 0 mm 3 mps 733 mmHg 63%
    17:00 +18°C° 0 mm 3 mps 733 mmHg 69%
    18:00 +17°C° 0 mm 2 mps 733 mmHg 74%
    19:00 +15°C° 0 mm 2 mps 733 mmHg 80%
    20:00 +15°C° 0 mm 2 mps 733 mmHg 81%
    21:00 +14°C° 0 mm 2 mps 733 mmHg 83%
    22:00 +14°C° 0 mm 2 mps 733 mmHg 84%
    23:00 +13°C° 0 mm 2 mps 732 mmHg 84%

    24 September, Monday

    Time Temperature Precipitation Wind Pressure Humidity
    00:00 +12°C° 0 mm 3 mps 732 mmHg 85%
    01:00 +12°C° 0 mm 3 mps 732 mmHg 85%
    02:00 +12°C° 0 mm 3 mps 732 mmHg 86%
    03:00 +11°C° 0 mm 3 mps 732 mmHg 86%
    04:00 +11°C° 0 mm 3 mps 732 mmHg 86%
    05:00 +11°C° 0 mm 3 mps 732 mmHg 86%
    06:00 +11°C° 0 mm 3 mps 731 mmHg 86%
    07:00 +11°C° 0 mm 3 mps 731 mmHg 85%
    08:00 +13°C° 0 mm 3 mps 731 mmHg 78%
    09:00 +15°C° 0 mm 4 mps 731 mmHg 72%
    10:00 +18°C° 0 mm 4 mps 731 mmHg 65%
    11:00 +19°C° 0 mm 5 mps 731 mmHg 58%
    12:00 +20°C° 0 mm 5 mps 731 mmHg 52%
    13:00 +21°C° 0 mm 5 mps 731 mmHg 46%
    14:00 +21°C° 0 mm 5 mps 731 mmHg 46%
    15:00 +21°C° 0 mm 4 mps 731 mmHg 45%
    16:00 +21°C° 0 mm 4 mps 731 mmHg 45%
    17:00 +19°C° 0 mm 4 mps 730 mmHg 50%
    18:00 +17°C° 0 mm 3 mps 730 mmHg 56%
    19:00 +14°C° 0 mm 3 mps 730 mmHg 61%
    20:00 +14°C° 0 mm 3 mps 730 mmHg 63%
    21:00 +13°C° 0 mm 3 mps 730 mmHg 65%
    22:00 +13°C° 0 mm 3 mps 729 mmHg 67%
    23:00 +12°C° 0 mm 3 mps 729 mmHg 68%
    Show more